When you browse on this site, cookies collect data to enhance your experience and personalize the content and advertising you see.
Visit our Privacy Policy to learn more. By continuing to use the site, you agree to this use of cookies and data.
  • en Suisse
  • Liste des pays
  • À 7 jours
  • Température de l'eau
  • Carte météo
  • Widgets météo
  • user-avatar
    Se connecter

    Météo par heure à Middlesbrough

    Ce jour, 15 Décembre, Dimanche

    Heure Température Précipitation Vent Pression Humidité
    00:00 +1°C° 0 mm 4 m/s 734 mmHg 96%
    01:00 +2°C° 0 mm 3 m/s 733 mmHg 96%
    02:00 +3°C° 0 mm 2 m/s 733 mmHg 96%
    03:00 +4°C° 0 mm 1 m/s 733 mmHg 95%
    04:00 +2°C° 0.8 mm 3 m/s 733 mmHg 94%
    05:00 +1°C° 0.8 mm 5 m/s 734 mmHg 93%
    06:00 0°C° 0.8 mm 7 m/s 734 mmHg 92%
    07:00 +1°C° 0.3 mm 6 m/s 735 mmHg 91%
    08:00 +1°C° 0.3 mm 6 m/s 736 mmHg 89%
    09:00 +1°C° 0.3 mm 6 m/s 738 mmHg 88%
    10:00 +1°C° 0 mm 6 m/s 738 mmHg 85%
    11:00 +2°C° 0 mm 6 m/s 739 mmHg 82%
    12:00 +2°C° 0 mm 6 m/s 739 mmHg 79%
    13:00 +2°C° 0 mm 6 m/s 740 mmHg 80%
    14:00 +2°C° 0 mm 6 m/s 740 mmHg 81%
    15:00 +2°C° 0 mm 5 m/s 741 mmHg 82%
    16:00 +1°C° 0.1 mm 5 m/s 741 mmHg 86%
    17:00 +1°C° 0.1 mm 5 m/s 741 mmHg 90%
    18:00 0°C° 0.1 mm 5 m/s 741 mmHg 94%
    19:00 0°C° 0 mm 5 m/s 741 mmHg 93%
    20:00 +1°C° 0 mm 5 m/s 742 mmHg 92%
    21:00 +1°C° 0 mm 6 m/s 742 mmHg 91%
    22:00 +1°C° 0 mm 6 m/s 742 mmHg 89%
    23:00 +2°C° 0 mm 7 m/s 742 mmHg 87%

    Demain, 16 Décembre, Lundi

    Heure Température Précipitation Vent Pression Humidité
    00:00 +2°C° 0 mm 7 m/s 742 mmHg 84%
    01:00 +1°C° 0 mm 8 m/s 742 mmHg 84%
    02:00 +1°C° 0 mm 8 m/s 742 mmHg 83%
    03:00 +1°C° 0 mm 8 m/s 742 mmHg 83%
    04:00 0°C° 0 mm 8 m/s 742 mmHg 83%
    05:00 0°C° 0 mm 8 m/s 742 mmHg 83%
    06:00 0°C° 0 mm 8 m/s 742 mmHg 84%
    07:00 0°C° 0 mm 7 m/s 743 mmHg 84%
    08:00 0°C° 0 mm 7 m/s 744 mmHg 84%
    09:00 +1°C° 0 mm 6 m/s 745 mmHg 84%
    10:00 +2°C° 0 mm 6 m/s 745 mmHg 81%
    11:00 +2°C° 0 mm 6 m/s 746 mmHg 78%
    12:00 +3°C° 0 mm 6 m/s 746 mmHg 76%
    13:00 +3°C° 0 mm 6 m/s 746 mmHg 77%
    14:00 +2°C° 0 mm 6 m/s 747 mmHg 78%
    15:00 +2°C° 0 mm 6 m/s 747 mmHg 79%
    16:00 +2°C° 0 mm 5 m/s 747 mmHg 80%
    17:00 +1°C° 0 mm 5 m/s 747 mmHg 82%
    18:00 0°C° 0 mm 5 m/s 747 mmHg 83%
    19:00 0°C° 0 mm 5 m/s 748 mmHg 84%
    20:00 0°C° 0 mm 5 m/s 748 mmHg 86%
    21:00 0°C° 0 mm 5 m/s 748 mmHg 87%
    22:00 0°C° 0 mm 5 m/s 748 mmHg 87%
    23:00 0°C° 0 mm 5 m/s 748 mmHg 87%

    Après-demain, 17 Décembre, Mardi

    Heure Température Précipitation Vent Pression Humidité
    00:00 0°C° 0 mm 4 m/s 748 mmHg 87%
    01:00 0°C° 0 mm 4 m/s 748 mmHg 87%
    02:00 0°C° 0 mm 4 m/s 748 mmHg 88%
    03:00 0°C° 0 mm 4 m/s 748 mmHg 89%
    04:00 0°C° 0 mm 4 m/s 748 mmHg 89%
    05:00 +1°C° 0 mm 3 m/s 748 mmHg 89%
    06:00 0°C° 0 mm 3 m/s 748 mmHg 89%
    07:00 +1°C° 0 mm 3 m/s 749 mmHg 88%
    08:00 +1°C° 0 mm 3 m/s 749 mmHg 88%
    09:00 +1°C° 0 mm 3 m/s 750 mmHg 87%
    10:00 +3°C° 0 mm 2 m/s 749 mmHg 85%
    11:00 +3°C° 0 mm 2 m/s 749 mmHg 82%
    12:00 +4°C° 0 mm 2 m/s 749 mmHg 80%
    13:00 +5°C° 0 mm 1 m/s 749 mmHg 81%
    14:00 +5°C° 0 mm 1 m/s 749 mmHg 82%
    15:00 +4°C° 0 mm 1 m/s 749 mmHg 82%
    16:00 +4°C° 0 mm 1 m/s 749 mmHg 84%
    17:00 +4°C° 0 mm 1 m/s 749 mmHg 85%
    18:00 +4°C° 0 mm 1 m/s 749 mmHg 86%
    19:00 +3°C° 0 mm 2 m/s 749 mmHg 87%
    20:00 +3°C° 0 mm 2 m/s 750 mmHg 87%
    21:00 +2°C° 0 mm 2 m/s 750 mmHg 88%
    22:00 +2°C° 0 mm 2 m/s 750 mmHg 89%
    23:00 +1°C° 0 mm 3 m/s 750 mmHg 89%

    18 Décembre, Mercredi

    Heure Température Précipitation Vent Pression Humidité
    00:00 +1°C° 0 mm 3 m/s 750 mmHg 90%
    01:00 0°C° 0 mm 3 m/s 751 mmHg 90%
    02:00 0°C° 0 mm 3 m/s 751 mmHg 90%
    03:00 0°C° 0 mm 3 m/s 752 mmHg 90%
    04:00 0°C° 0 mm 3 m/s 752 mmHg 90%
    05:00 +1°C° 0 mm 2 m/s 752 mmHg 90%
    06:00 +1°C° 0 mm 2 m/s 753 mmHg 90%
    07:00 +1°C° 0 mm 2 m/s 753 mmHg 90%
    08:00 +1°C° 0 mm 2 m/s 753 mmHg 90%
    09:00 +1°C° 0 mm 2 m/s 754 mmHg 90%
    10:00 +2°C° 0 mm 2 m/s 754 mmHg 87%
    11:00 +3°C° 0 mm 2 m/s 754 mmHg 84%
    12:00 +3°C° 0 mm 2 m/s 754 mmHg 82%
    13:00 +3°C° 0 mm 2 m/s 754 mmHg 83%
    14:00 +2°C° 0 mm 2 m/s 754 mmHg 85%
    15:00 +2°C° 0 mm 2 m/s 754 mmHg 87%
    16:00 +1°C° 0 mm 3 m/s 754 mmHg 87%
    17:00 0°C° 0 mm 3 m/s 753 mmHg 87%
    18:00 -1°C° 0 mm 4 m/s 753 mmHg 87%
    19:00 -1°C° 0 mm 4 m/s 753 mmHg 87%
    20:00 -1°C° 0 mm 5 m/s 753 mmHg 87%
    21:00 0°C° 0 mm 5 m/s 753 mmHg 87%
    22:00 -1°C° 0 mm 6 m/s 752 mmHg 88%
    23:00 0°C° 0 mm 7 m/s 752 mmHg 88%

    19 Décembre, Jeudi

    Heure Température Précipitation Vent Pression Humidité
    00:00 0°C° 0 mm 7 m/s 751 mmHg 88%
    01:00 +1°C° 0 mm 8 m/s 750 mmHg 87%
    02:00 +1°C° 0 mm 9 m/s 749 mmHg 86%
    03:00 +2°C° 0 mm 10 m/s 748 mmHg 85%
    04:00 +2°C° 0.1 mm 10 m/s 747 mmHg 87%
    05:00 +2°C° 0.1 mm 10 m/s 747 mmHg 89%
    06:00 +3°C° 0.1 mm 10 m/s 746 mmHg 90%
    07:00 +3°C° 1 mm 9 m/s 745 mmHg 92%
    08:00 +3°C° 1 mm 9 m/s 745 mmHg 93%
    09:00 +5°C° 1 mm 8 m/s 745 mmHg 94%
    10:00 +5°C° 0.2 mm 7 m/s 744 mmHg 95%
    11:00 +5°C° 0.2 mm 6 m/s 744 mmHg 95%
    12:00 +6°C° 0.2 mm 5 m/s 744 mmHg 96%
    13:00 +6°C° 0.1 mm 5 m/s 744 mmHg 96%
    14:00 +6°C° 0.1 mm 4 m/s 743 mmHg 96%
    15:00 +6°C° 0.1 mm 4 m/s 743 mmHg 97%
    16:00 +7°C° 0 mm 3 m/s 743 mmHg 97%
    17:00 +7°C° 0 mm 3 m/s 743 mmHg 97%
    18:00 +7°C° 0 mm 2 m/s 743 mmHg 97%
    19:00 +6°C° 0 mm 2 m/s 743 mmHg 97%
    20:00 +6°C° 0 mm 2 m/s 743 mmHg 97%
    21:00 +7°C° 0 mm 1 m/s 743 mmHg 97%
    22:00 +7°C° 0 mm 1 m/s 742 mmHg 97%
    23:00 +7°C° 0 mm 1 m/s 742 mmHg 97%

    20 Décembre, Vendredi

    Heure Température Précipitation Vent Pression Humidité
    00:00 +7°C° 0 mm 1 m/s 742 mmHg 97%
    01:00 +7°C° 0 mm 1 m/s 742 mmHg 97%
    02:00 +5°C° 0 mm 2 m/s 741 mmHg 97%
    03:00 +5°C° 0 mm 2 m/s 741 mmHg 97%
    04:00 +5°C° 0 mm 2 m/s 741 mmHg 97%
    05:00 +5°C° 0 mm 2 m/s 741 mmHg 96%
    06:00 +5°C° 0 mm 2 m/s 741 mmHg 96%
    07:00 +5°C° 0 mm 2 m/s 741 mmHg 96%
    08:00 +4°C° 0 mm 2 m/s 741 mmHg 96%
    09:00 +4°C° 0 mm 2 m/s 741 mmHg 96%
    10:00 +5°C° 0 mm 2 m/s 741 mmHg 95%
    11:00 +5°C° 0 mm 2 m/s 741 mmHg 94%
    12:00 +6°C° 0 mm 2 m/s 741 mmHg 93%
    13:00 +5°C° 0 mm 2 m/s 741 mmHg 94%
    14:00 +5°C° 0 mm 2 m/s 741 mmHg 94%
    15:00 +5°C° 0 mm 2 m/s 741 mmHg 95%
    16:00 +5°C° 0 mm 2 m/s 741 mmHg 96%
    17:00 +4°C° 0 mm 3 m/s 741 mmHg 96%
    18:00 +4°C° 0 mm 3 m/s 740 mmHg 96%
    19:00 +4°C° 0 mm 3 m/s 740 mmHg 96%
    20:00 +4°C° 0 mm 3 m/s 740 mmHg 96%
    21:00 +4°C° 0 mm 3 m/s 740 mmHg 95%
    22:00 +5°C° 0 mm 2 m/s 740 mmHg 95%
    23:00 +5°C° 0 mm 2 m/s 741 mmHg 95%
    Voir plus